Weather in Cilacap

Indonesia     7°29′44″S   109°00′16″E
temp.,
°C
wind,
m/s
gust,
m/s
humid.,
%
clouds,
%
prec.,
mm/h
press.,
hPa
HPBL,
m
11 may, tue
tue1101:00+24nne019318 0.4 100919
04:00+23nnw119662 0.1 100912
07:00+25n118819 0.1 1010160
10:00+31sse226017 0.0 10101154
13:00+32sse535442 0.0 10071417
16:00+29sse567449 0.3 1006845
19:00+26ese388454 0.7 1009557
22:00+25e129132 0.3 101086
12 may, wed
wed1201:00+24e119261 0.4 100949
04:00+25ese119193 0.3 100842
07:00+26ese268558 0.6 1009473
10:00+30se456783 0.4 10091110
13:00+29se666996 0.9 10061017
16:00+27se5777100 0.9 1006815
19:00+26ese388177 1.3 1009521
22:00+25ene1285100 0.1 1009114
13 may, thu
thu1301:00+25ese1185100 0.1 100840
04:00+24e019199 0.1 100715
07:00+25ene128420 0.1 1009173
10:00+30se446353 0.1 10081250
13:00+30se556664 0.6 1006906
16:00+29sse5573100 1.2 1006824
19:00+26se388659 1.3 1008406
22:00+25ese129079 0.1 100850
14 may, fri
fri1401:00+24e019383 0.3 100718
04:00+24se0196100 0.1 100611
07:00+25e128962 0.1 1008206
10:00+31se346151 0.0 10081268
13:00+31sse556358 0.3 10051113
16:00+28se567826 2.9 1005752
19:00+25ese3891100 4.0 1008397
22:00+25se259292 0.3 1008179
15 may, sat
sat1501:00+24se119595 0.5 100746
04:00+24ese119680 0.1 100743
07:00+25ese149055 0.2 1008241
10:00+29ese347050 0.5 1008935
13:00+29se567086 1.9 1005936
16:00+27se477697 0.7 1005776
19:00+26ese288373 1.3 1007567
22:00